sat.trackr.live / text

‹ back to catalog

HULIANWANG DIGUI-33

NORAD 64286 · 2025-121D

PAYLOAD ACTIVE UNKNOWN

§ Identity

Operator
Country
PRC
Launch date
2025-06-05
Launch site
TAISC
Launch vehicle
Mass (kg)
RCS (m²)

External: N2YO · Heavens-Above · Gunter

§ Orbital elements

Epoch: 2026-09-21T22:08:46.159008Z

Period
108.73 min
Inclination
86.5061°
Eccentricity
0.0001662
Mean motion
13.24412297 rev/d
Perigee alt
1,166.7 km
Apogee alt
1,169.2 km
Semi-major
7,546.1 km
B*
6.9527e-5
RAAN
341.0127°
Arg perigee
108.6616°
Mean anomaly
251.4699°
Rev number
6,296

§ Raw data

HULIANWANG DIGUI-331 64286U 25121D   26264.92275647  .00000044  00000+0  69527-4 0  99992 64286  86.5061 341.0127 0001662 108.6616 251.4699 13.24412297 62969

JSON: /api/v1/satellites/64286 · /tle

For live sub-satellite position, see the globe view (requires WebGL).

§ Visibility from observer

Set your observer location to see the next 7 days of passes ≥ 10°. The values pass through the URL so the page stays shareable.

No JS? Fill the form by hand. The geolocation button needs JavaScript.